Main page
METAR-TAF:

METAR-TAF

Airports :

RAF Marham

Marham, England

latitude: 52-39N, longitude: 000-34E, elevation: 23 m

Current weather observation

The report was made 56 minutes ago, at 20:50 UTC
Wind 14 kt from the North
Temperature 4°C
Humidity 87%
Pressure 1034 hPa
Visibility 10 km or more

METAR: EGYM 282050Z AUTO 36014KT 9999 FEW024/// BKN050/// 04/02 Q1034 RERA

Time: 21:46 (21:46 UTC)


TAF: missing

Weather observations and forecasts of more than 4000 airports (METAR and TAF reports).

The available stations are represented by yellow and red dots on the map.

Hover mouse over dot to see the name of the station.

Then click to see weather observations and forecasts.

To change the map : click on the green buttons with a black cross to zoom in, on the green button with a dash to zoom out, or on the green arrows for adjacent maps.


METAR-TAF: